TimeCET,TemperatureF,Dew PointF,Humidity,Sea Level PressureIn,VisibilityMPH,Wind Direction,Wind SpeedMPH,Gust SpeedMPH,PrecipitationIn,Events,Conditions,WindDirDegrees,DateUTC
1:00 AM,48,45,84,30.15,,NNE,2.3,,,,,30,2013-01-01 00:00:00
5:00 AM,50.0,46.4,87,30.06,6.2,NNW,8.1,-,N/A,,Partly Cloudy,330,2013-01-01 04:00:00
5:30 AM,51.8,46.4,82,30.06,6.2,NNW,9.2,-,N/A,,Partly Cloudy,330,2013-01-01 04:30:00
6:00 AM,51.8,44.6,76,30.06,6.2,NW,9.2,-,N/A,,Partly Cloudy,320,2013-01-01 05:00:00
6:30 AM,51.8,44.6,76,30.06,6.2,NNW,6.9,-,N/A,,Partly Cloudy,330,2013-01-01 05:30:00
7:00 AM,50,42,67,30.09,19,NNW,6.9,,,,Scattered Clouds,330,2013-01-01 06:00:00
7:00 AM,51.8,44.6,76,30.06,6.2,NNW,4.6,-,N/A,,Partly Cloudy,340,2013-01-01 06:00:00
7:30 AM,53.6,44.6,72,30.09,6.2,NW,5.8,-,N/A,,Partly Cloudy,310,2013-01-01 06:30:00
8:00 AM,51.8,44.6,76,30.09,6.2,NNW,3.5,-,N/A,,Partly Cloudy,340,2013-01-01 07:00:00
8:30 AM,51.8,44.6,76,30.09,6.2,NW,4.6,-,N/A,,Scattered Clouds,320,2013-01-01 07:30:00
9:00 AM,57.2,42.8,59,30.09,6.2,West,8.1,-,N/A,,Scattered Clouds,260,2013-01-01 08:00:00
9:30 AM,53.6,44.6,72,30.09,6.2,Variable,2.3,-,N/A,,Scattered Clouds,0,2013-01-01 08:30:00
10:00 AM,55.4,46.4,72,30.09,6.2,ENE,3.5,-,N/A,,Scattered Clouds,70,2013-01-01 09:00:00
10:30 AM,55.4,46.4,72,30.12,6.2,Variable,2.3,-,N/A,,Scattered Clouds,0,2013-01-01 09:30:00
11:00 AM,57.2,46.4,67,30.12,6.2,ENE,3.5,-,N/A,,Scattered Clouds,60,2013-01-01 10:00:00
11:30 AM,59.0,44.6,59,30.12,6.2,ENE,5.8,-,N/A,,Scattered Clouds,70,2013-01-01 10:30:00
12:00 PM,60.8,44.6,55,30.12,6.2,Variable,2.3,-,N/A,,Scattered Clouds,0,2013-01-01 11:00:00
12:30 PM,60.8,46.4,59,30.12,6.2,Variable,2.3,-,N/A,,Scattered Clouds,0,2013-01-01 11:30:00
1:00 PM,61,46,48,30.11,25,SSE,4.6,,,,Scattered Clouds,150,2013-01-01 12:00:00
1:00 PM,60.8,48.2,63,30.09,6.2,SSE,3.5,-,N/A,,Scattered Clouds,160,2013-01-01 12:00:00
1:30 PM,62.6,48.2,59,30.09,6.2,SE,3.5,-,N/A,,Partly Cloudy,140,2013-01-01 12:30:00
2:00 PM,62.6,50.0,63,30.06,6.2,SSE,3.5,-,N/A,,Partly Cloudy,150,2013-01-01 13:00:00
2:30 PM,62.6,48.2,59,30.06,6.2,SSE,3.5,-,N/A,,Partly Cloudy,150,2013-01-01 13:30:00
3:00 PM,62.6,51.8,68,30.06,6.2,South,3.5,-,N/A,,Partly Cloudy,170,2013-01-01 14:00:00
3:30 PM,60.8,50.0,68,30.09,6.2,SSW,5.8,-,N/A,,Partly Cloudy,200,2013-01-01 14:30:00
4:00 PM,60.8,51.8,72,30.09,6.2,Variable,2.3,-,N/A,,Scattered Clouds,0,2013-01-01 15:00:00
4:30 PM,60.8,51.8,72,30.09,6.2,Variable,2.3,-,N/A,,Scattered Clouds,0,2013-01-01 15:30:00
5:00 PM,60.8,50.0,68,30.09,6.2,Variable,1.2,-,N/A,,Scattered Clouds,0,2013-01-01 16:00:00
5:30 PM,60.8,51.8,72,30.09,6.2,South,3.5,-,N/A,,Scattered Clouds,190,2013-01-01 16:30:00
6:00 PM,59.0,51.8,77,30.09,6.2,Variable,1.2,-,N/A,,Scattered Clouds,0,2013-01-01 17:00:00
6:30 PM,59.0,51.8,77,30.09,6.2,Calm,Calm,-,N/A,,Scattered Clouds,0,2013-01-01 17:30:00
7:00 PM,56,49,71,30.12,25,NNE,2.3,,,,Scattered Clouds,30,2013-01-01 18:00:00
7:00 PM,57.2,51.8,82,30.09,6.2,Variable,1.2,-,N/A,,Scattered Clouds,0,2013-01-01 18:00:00
7:30 PM,55.4,44.6,67,30.12,6.2,Variable,2.3,-,N/A,,Scattered Clouds,0,2013-01-01 18:30:00
8:00 PM,55.4,42.8,63,30.12,6.2,North,4.6,-,N/A,,Partly Cloudy,10,2013-01-01 19:00:00
8:30 PM,55.4,42.8,63,30.15,6.2,Variable,5.8,-,N/A,,Partly Cloudy,0,2013-01-01 19:30:00
9:00 PM,57.2,44.6,63,30.12,6.2,East,3.5,-,N/A,,Partly Cloudy,100,2013-01-01 20:00:00
9:30 PM,59.0,42.8,55,30.12,6.2,NNW,10.4,-,N/A,,Partly Cloudy,330,2013-01-01 20:30:00
10:00 PM,59.0,41.0,51,30.12,6.2,NNW,11.5,-,N/A,,Partly Cloudy,340,2013-01-01 21:00:00
10:30 PM,59.0,39.2,48,30.15,6.2,NNW,8.1,-,N/A,,Partly Cloudy,340,2013-01-01 21:30:00